Regional Weather Roundup
Issued by NWS

Home | Current Version | Previous Version | Text Only | Print | Product List | Glossary On
Versions: 1 2 3 4 5 6 7 8 9 10 11 12 13 14 15 16 17 18 19 20 21 22 23 24 25 26 27 28 29 30 31 32 33 34 35 36 37 38 39 40 41 42 43 44 45 46 47 48 49 50
000
ASUS43 KLOT 202010
RWRIL

ILLINOIS REGIONAL WEATHER ROUNDUP
NATIONAL WEATHER SERVICE CHICAGO/ROMEOVILLE IL
300 PM CDT SAT SEP 20 2014

NOTE: "FAIR" INDICATES FEW OR NO CLOUDS BELOW 12,000 FEET WITH NO
SIGNIFICANT WEATHER AND/OR OBSTRUCTIONS TO VISIBILITY.

* THESE STATIONS ARE NOT UNDER NWS QUALITY CONTROL. THEY ALSO MAY NOT
  REPORT WEATHER SUCH AS PRECIPITATION OR FOG.

ILZ001-002-007-009-015-016-024-202100-
NORTHWEST ILLINOIS

CITY           SKY/WX    TMP DP  RH WIND       PRES   REMARKS
MOLINE         CLOUDY    75  67  76 S6        29.83F
STERLING*      PTSUNNY   72  66  83 W7        29.86F
SAVANNA*       LGT RAIN  71  67  87 S8        29.81F
$$

ILZ003-004-008-010-011-017-018-202100-
NORTH CENTRAL ILLINOIS

CITY           SKY/WX    TMP DP  RH WIND       PRES   REMARKS
ROCKFORD       LGT RAIN  71  66  84 SW16      29.84S
FREEPORT*      CLOUDY    70  68  92 SW17      29.86R
ROCHELLE*      LGT RAIN  68  65  90 W9        29.87F
DE KALB*       LGT RAIN  67  64  88 W17G24    29.86S
PERU*          PTSUNNY   77  68  73 W10       29.86F
$$

ILZ005-006-012>014-019>023-202100-
NORTHEAST ILLINOIS

CITY           SKY/WX    TMP DP  RH WIND       PRES   REMARKS
CHICAGO-OHARE  PTSUNNY   72  69  90 SW13      29.81F
CHICAGO-MIDWAY CLOUDY    75  69  81 SW6       29.79F
AURORA         PTSUNNY   77  66  68 W17G25    29.85F
LANSING*       TSTM      73  67  82 W6G20     29.83F
JOLIET*        CLOUDY    73  67  83 SW6       29.85F
WAUKEGAN       PTSUNNY   74  64  71 SW14G23   29.79F
DUPAGE AIRPORT PTSUNNY   74  67  78 SW12      29.83F
KANKAKEE*      CLOUDY    78  70  76 SW16      29.84S HX  80
WHEELING       PTSUNNY   76  66  71 SW9       29.81F
MORRIS*        CLOUDY    77  70  77 W12G17    29.85F
ROMEOVILLE*    CLOUDY    75  69  80 W8        29.84F
NORTHERLY ISL    N/A     73  65  75 SW5         N/A
$$

LMZ740>746-202100-
SOUTHERN LAKE MICHIGAN

STATION/POSITION SKY/WX   TEMP    WIND        PRES    VSBY  WAVE
                          AIR SEA DIR/SP/G                  HT/PER
                          (F)     (DEG/KT/KT) (MB)    (MI)  (FT/S)
SOUTHERN BUOY              67 63  210/ 16/ 17 1008.8F         3/ 5
WAUKEGAN HARBOR            75     240/ 14/ 24   N/A
HARRISON CRIB              73     220/ 14/ 21   N/A
BURNHAM HARBOR             73     160/  3/ 11   N/A
CALUMET HARBOR             73     270/  3/  5 1008.4F
MICHIGAN CITY              74     230/ 19/ 21   N/A
MICHIGAN CITY 6N           70 65  260/  8/ 12   N/A           3/ 4
ST. JOSEPH                 69 65  240/ 10/ 14   N/A           3/ 4
$$

ILZ025>027-034>036-040-047-049-050-058-095>099-202100-
WEST-CENTRAL ILLINOIS

CITY           SKY/WX    TMP DP  RH WIND       PRES   REMARKS
QUINCY         CLOUDY    81  69  67 NW9       29.92F HX  84
GALESBURG*     CLOUDY    79  68  68 W13G22    29.88F HX  82
MACOMB*        PTSUNNY   79  68  68 W16G22    29.93S HX  81
JACKSONVILLE*  CLOUDY    83  71  65 SW12G17   29.93S HX  88
PITTSFIELD*    LGT RAIN  82  70  66 SW8       29.93F HX  86
$$

ILZ028>032-037-038-041>044-048-051>054-059>061-202100-
CENTRAL ILLINOIS

CITY           SKY/WX    TMP DP  RH WIND       PRES   REMARKS
PONTIAC        PTSUNNY   82  66  57 W17G25    29.85F THUNDER HX  85
DECATUR        CLOUDY    83  68  60 SW18G28   29.90F HX  86
PEORIA         LGT RAIN  78  69  73 SW9       29.88F HX  80
LACON*         PTSUNNY   80  67  65 W10       29.86S HX  82
LINCOLN*       CLOUDY    84  68  58 W8G17     29.87F THUNDER HX  87
SPRINGFIELD    CLOUDY    84  69  60 W14G20    29.91F HX  88
TAYLORVILLE    CLOUDY    81  68  65 SW14      29.91F HX  83
$$

ILZ033-039-045-046-055>057-062-063-202100-
EAST-CENTRAL ILLINOIS

CITY           SKY/WX    TMP DP  RH WIND       PRES   REMARKS
CHAMPAIGN      PTSUNNY   83  67  58 SW18G29   29.90S HX  85
DANVILLE*      MOSUNNY   82  67  59 S16G22    29.87S HX  84
RANTOUL*       PTSUNNY   86  64  46 SW16G26   29.88F HX  87
MATTOON        MOSUNNY   80  67  64 SW13G22   29.93F HX  82
PARIS*         MOSUNNY   85  66  53 SW15G25   29.92F HX  87
$$

ILZ079-100>102-202100-
SOUTHWEST ILLINOIS

CITY           SKY/WX    TMP DP  RH WIND       PRES   REMARKS
ALTON          CLOUDY    82  68  61 SW10      29.94F HX  85
BELLEVILLE     PTSUNNY   84  69  60 VRB5      29.93F HX  88
CAHOKIA*       CLOUDY    86  68  54 SW8       29.93F HX  89
SPARTA*        PTSUNNY   81  67  62 SW10G17   29.98S HX  84
$$

ILZ064>066-069>071-074>076-080>082-084>086-088>090-092>094-202100-
SOUTH-CENTRAL ILLINOIS

CITY           SKY/WX    TMP DP  RH WIND       PRES   REMARKS
CARBONDALE     PTSUNNY   84  67  56 S10       29.97F HX  86
CAIRO*         PTSUNNY   85  69  58 CALM      30.00S HX  88
EFFINGHAM*     MOSUNNY   82  64  55 SW12      29.94F HX  83
MARION         PTSUNNY   86  68  54 SW12      29.98F HX  89
MT. VERNON     MOSUNNY   84  70  61 S12       29.97F HX  88
CENTRALIA*     MOSUNNY   84  67  58 SW13      29.96S HX  86
SALEM*         MOSUNNY   83  71  67 SW12      29.96F HX  88
METROPOLIS*    MOSUNNY   84  68  58 SW3       29.99F HX  87
$$

ILZ067-068-072-073-078-083-087-091-202100-
SOUTHEAST ILLINOIS

CITY           SKY/WX    TMP DP  RH WIND       PRES   REMARKS
LAWRENCEVILLE  MOSUNNY   85  66  53 SW14      29.96F HX  87
FLORA*         MOSUNNY   83  66  56 SW12      29.96F HX  85
FAIRFIELD*     MOSUNNY  N/A N/A N/A SW12G18   29.96F
HARRISBURG*    PTSUNNY   83  66  56 SW9       29.99F HX  85
ROBINSON*      MOSUNNY   85  68  55 SW13      29.96S HX  88
CARMI*         MOSUNNY   86  68  55 SW12G18   29.97F HX  89
$$

ABBREVIATIONS USED IN REMARKS
   TC - TEMPERATURE IN CELSIUS
  WCI - WIND CHILL INDEX
   HX - HEAT INDEX
  VSB - VISIBILITY
$$




USA.gov is the U.S. government's official web portal to all federal, state and local government web resources and services.